Date String (YYYY-MM-DD hh:mm:ss) UTC,Instrument flags,Ambient pressure (hPa),Sample flow (lpm),Bypass flow (lpm),Sample temperature (°C),Ambient temperature (°C),ASC tube jacket temperature (°C),LED temperature (°C),Box temperature (°C),Sample RH (%),Span deviation,Mass concentration (μg/m³),Mass concentration (μg/m³),Mass concentration (μg/m³)
DateTimeUTC,F1_M11,P_M11,Q1_M11,Q2_M11,T1_M11,T2_M11,T3_M11,T4_M11,T5_M11,U1_M11,ZSPAN_M11,X0_M11,X2_M11,X1_M11
2022-01-30 09:00:00,,0827.7,5.00,0.00,21.6,21.0,00.0,30.7,23.1,05.9,0000.0,0005.56,0003.88,0003.72
2022-01-30 09:01:00,,0827.7,4.98,0.00,21.5,20.9,00.0,30.7,23.1,05.8,0000.0,0005.48,0003.87,0003.71
2022-01-30 09:02:00,,0827.7,5.01,0.00,21.5,20.8,00.0,30.7,23.0,05.9,0000.0,0005.48,0003.88,0003.69
2022-01-30 09:03:00,,0827.7,5.00,0.00,21.4,20.7,00.0,30.7,23.0,05.9,0000.0,0005.52,0003.89,0003.69
2022-01-30 09:04:00,,0827.7,5.01,0.00,21.4,20.7,00.0,30.6,22.9,05.9,0000.0,0005.53,0003.89,0003.68
2022-01-30 09:05:00,,0827.7,5.00,0.00,21.3,20.6,00.0,30.6,22.9,05.9,0000.0,0005.44,0003.87,0003.68
2022-01-30 09:06:00,,0827.6,4.99,0.00,21.3,20.6,00.0,30.6,22.9,06.0,0000.0,0005.46,0003.89,0003.68
2022-01-30 09:07:00,,0827.7,5.01,0.00,21.3,20.6,00.0,30.6,22.9,05.9,0000.0,0005.52,0003.89,0003.67
2022-01-30 09:08:00,,0827.6,5.01,0.00,21.3,20.7,00.0,30.5,22.9,05.9,0000.0,0005.49,0003.87,0003.65
2022-01-30 09:09:00,,0827.7,5.00,0.00,21.4,21.4,00.0,30.6,23.2,05.9,0000.0,0005.27,0003.82,0003.62
2022-01-30 09:10:00,,0827.7,4.99,0.00,21.6,22.3,00.0,30.6,23.5,05.8,0000.0,0005.16,0003.78,0003.59
2022-01-30 09:11:00,,0827.7,5.00,0.00,21.7,22.6,00.0,30.7,23.7,05.7,0000.0,0005.13,0003.75,0003.56
2022-01-30 09:12:00,,0827.7,5.01,0.00,21.8,22.3,00.0,30.7,23.7,05.6,0000.0,0005.07,0003.73,0003.52
2022-01-30 09:13:00,,0827.6,4.99,0.00,21.8,22.1,00.0,30.7,23.6,05.6,0000.0,0005.05,0003.69,0003.50
2022-01-30 09:14:00,,0827.6,5.00,0.00,21.8,21.9,00.0,30.7,23.5,05.6,0000.0,0005.02,0003.67,0003.47
2022-01-30 09:15:00,,0827.6,5.00,0.00,21.7,21.7,00.0,30.7,23.5,05.5,0000.0,0005.08,0003.66,0003.45
2022-01-30 09:16:00,,0827.6,5.00,0.00,21.7,21.5,00.0,30.7,23.4,05.5,0000.0,0005.21,0003.65,0003.43
2022-01-30 09:17:00,,0827.5,4.99,0.00,21.7,21.4,00.0,30.7,23.5,05.5,0000.0,0005.10,0003.60,0003.40
2022-01-30 09:18:00,,0827.5,5.02,0.00,21.7,21.4,00.0,30.7,23.5,05.4,0000.0,0005.03,0003.56,0003.37
2022-01-30 09:19:00,,0827.5,4.99,0.00,21.7,21.3,00.0,30.7,23.5,05.4,0000.0,0005.00,0003.54,0003.34
2022-01-30 09:20:00,,0827.5,5.01,0.00,21.7,21.3,00.0,30.7,23.5,05.4,0000.0,0005.04,0003.54,0003.32
2022-01-30 09:21:00,,0827.5,4.99,0.00,21.7,21.2,00.0,30.7,23.4,05.3,0000.0,0005.54,0003.51,0003.30
2022-01-30 09:22:00,,0827.5,5.01,0.00,21.7,21.2,00.0,30.7,23.4,05.3,0000.0,0007.05,0003.48,0003.28
2022-01-30 09:23:00,,0827.4,5.00,0.00,21.7,21.1,00.0,30.7,23.4,05.3,0000.0,0007.40,0003.46,0003.28
2022-01-30 09:24:00,,0827.4,4.99,0.00,21.7,21.1,00.0,30.7,23.4,05.3,0000.0,0007.39,0003.47,0003.28
2022-01-30 09:25:00,,0827.4,5.01,0.00,21.7,21.1,00.0,30.7,23.4,05.4,0000.0,0007.61,0003.44,0003.27
2022-01-30 09:26:00,,0827.4,4.99,0.00,21.7,21.1,00.0,30.7,23.4,05.3,0000.0,0007.69,0003.39,0003.25
2022-01-30 09:27:00,,0827.4,5.00,0.00,21.7,21.0,00.0,30.7,23.4,05.2,0000.0,0007.65,0003.38,0003.25
2022-01-30 09:28:00,,0827.4,5.00,0.00,21.6,21.0,00.0,30.7,23.3,05.2,0000.0,0007.65,0003.38,0003.23
2022-01-30 09:29:00,,0827.4,5.00,0.00,21.6,21.0,00.0,30.7,23.2,05.2,0000.0,0007.61,0003.37,0003.23
2022-01-30 09:30:00,,0827.4,5.00,0.00,21.6,20.9,00.0,30.7,23.2,05.3,0000.0,0007.58,0003.37,0003.23
2022-01-30 09:31:00,,0827.4,5.00,0.00,21.5,20.8,00.0,30.7,23.1,05.3,0000.0,0007.56,0003.36,0003.24
2022-01-30 09:32:00,,0827.4,5.00,0.00,21.5,20.7,00.0,30.6,23.1,05.2,0000.0,0007.10,0003.37,0003.24
2022-01-30 09:33:00,,0827.3,4.99,0.00,21.5,20.7,00.0,30.6,23.1,05.2,0000.0,0005.64,0003.36,0003.23
2022-01-30 09:34:00,,0827.3,5.01,0.00,21.5,21.1,00.0,30.6,23.2,05.1,0000.0,0005.86,0003.35,0003.22
2022-01-30 09:35:00,,0827.3,5.01,0.00,21.7,21.9,00.0,30.7,23.5,05.0,0000.0,0005.71,0003.31,0003.19
2022-01-30 09:36:00,,0827.3,4.99,0.00,21.8,22.7,00.0,30.7,23.8,04.9,0000.0,0005.08,0003.29,0003.18
2022-01-30 09:37:00,,0827.5,5.00,0.00,21.9,22.8,00.0,30.7,24.0,04.8,0000.0,0004.73,0003.27,0003.15
2022-01-30 09:38:00,,0827.6,5.01,0.00,22.0,22.6,00.0,30.8,24.0,04.8,0000.0,0004.60,0003.23,0003.12
2022-01-30 09:39:00,,0827.2,4.99,0.00,22.0,22.4,00.0,30.8,24.0,04.7,0000.0,0004.51,0003.20,0003.08
2022-01-30 09:40:00,,0827.2,5.00,0.00,22.0,22.2,00.0,30.8,24.0,04.7,0000.0,0004.42,0003.17,0003.03
2022-01-30 09:41:00,,0827.2,5.00,0.00,22.1,22.1,00.0,30.8,23.9,04.6,0000.0,0004.37,0003.13,0002.95
2022-01-30 09:42:00,,0827.1,5.00,0.00,22.1,22.0,00.0,30.9,23.9,04.7,0000.0,0004.29,0003.10,0002.91
2022-01-30 09:43:00,,0827.2,5.00,0.00,22.1,21.9,00.0,30.9,23.9,04.7,0000.0,0004.22,0003.05,0002.87
2022-01-30 09:44:00,,0827.2,4.99,0.00,22.1,21.8,00.0,30.9,23.9,04.9,0000.0,0004.05,0003.00,0002.83
2022-01-30 09:45:00,,0827.1,5.00,0.00,22.1,21.8,00.0,30.9,23.9,04.9,0000.0,0004.66,0002.97,0002.81
2022-01-30 09:46:00,,0827.1,5.00,0.00,22.1,21.7,00.0,30.9,23.9,04.9,0000.0,0004.72,0002.95,0002.79
2022-01-30 09:47:00,,0827.1,5.01,0.00,22.1,21.7,00.0,31.0,23.9,04.9,0000.0,0004.71,0002.92,0002.76
2022-01-30 09:48:00,,0827.2,4.98,0.00,22.1,21.7,00.0,31.0,23.9,04.9,0000.0,0004.68,0002.91,0002.74
2022-01-30 09:49:00,,0827.1,5.00,0.00,22.1,21.6,00.0,31.0,23.9,05.0,0000.0,0004.59,0002.85,0002.71
2022-01-30 09:50:00,,0827.1,5.01,0.00,22.1,21.6,00.0,31.0,23.9,04.9,0000.0,0004.47,0002.74,0002.61
2022-01-30 09:51:00,,0827.1,4.99,0.00,22.1,21.5,00.0,31.0,23.8,05.1,0000.0,0004.32,0002.62,0002.51
2022-01-30 09:52:00,,0827.1,5.01,0.00,22.1,21.5,00.0,31.0,23.8,05.4,0000.0,0004.18,0002.50,0002.41
2022-01-30 09:53:00,,0827.1,5.01,0.00,22.0,21.4,00.0,31.0,23.7,05.8,0000.0,0003.98,0002.32,0002.26
2022-01-30 09:54:00,,0827.0,5.00,0.00,22.0,21.4,00.0,31.0,23.7,05.9,0000.0,0003.87,0002.25,0002.19
2022-01-30 09:55:00,,0827.0,4.98,0.00,22.0,21.3,00.0,31.0,23.6,05.9,0000.0,0003.92,0002.29,0002.22
2022-01-30 09:56:00,,0827.0,5.01,0.00,21.9,21.3,00.0,31.0,23.6,05.6,0000.0,0003.00,0002.30,0002.21
2022-01-30 09:57:00,,0827.0,5.00,0.00,21.9,21.3,00.0,31.0,23.6,05.6,0000.0,0002.77,0002.30,0002.20
2022-01-30 09:58:00,,0827.0,5.01,0.00,21.9,21.3,00.0,31.0,23.6,05.5,0000.0,0002.85,0002.36,0002.23
2022-01-30 09:59:00,,0827.0,4.99,0.00,21.9,21.3,00.0,31.0,23.6,05.5,0000.0,0002.79,0002.31,0002.18
